Fort Myers, FL

5:05 PM EDT on September 27, 2016 (GMT -0400)
Page

Weather History for KFMY - July, 2012

Change the Weather History Date:

Friday, July 27, 2012

  Actual Average Record
Temperature  
Mean Temperature 86 °F 83 °F  
Max Temperature 93 °F 92 °F 97 °F (1979)
Min Temperature 79 °F 75 °F 68 °F (1976)
Degree Days  
Heating Degree Days 0 0  
Month to date heating degree days 0 0  
Since 1 June heating degree days 0 0  
Since 1 July heating degree days 0 0  
Cooling Degree Days 21 18  
Month to date cooling degree days 507 486  
Year to date cooling degree days 2469 2077  
Since 1 June cooling degree days 1031 1011  
Growing Degree Days 35 (Base 50)    
Moisture  
Dew Point 74 °F    
Average Humidity 72    
Maximum Humidity 91    
Minimum Humidity 52    
Precipitation  
Precipitation 0.13 in 0.28 in 3.44 in (2000)
Month to date precipitation 9.27 7.86  
Year to date precipitation 27.00 29.75  
Sea Level Pressure  
Sea Level Pressure 30.06 in    
Wind  
Wind Speed 4 mph (WSW)    
Max Wind Speed 15 mph    
Max Gust Speed 21 mph    
Visibility 9 miles    
Events Rain    
T = Trace of Precipitation, MM = Missing Value Source: NWS Daily Summary

Daily Weather History Graph

Daily Weather History Graph

Search for Another Location

Airport or City:

Trip Planner

Search our weather history database for the weather conditions in past years. The results will help you decide how hot, cold, wet, or windy it might be!

Date:

Astronomy

Jul. 27, 2012 Rise Set
Actual Time 6:50 AM EDT 8:17 PM EDT
Civil Twilight 6:24 AM EDT 8:42 PM EDT
Nautical Twilight 5:54 AM EDT 9:12 PM EDT
Astronomical Twilight 5:23 AM EDT 9:43 PM EDT
Moon 3:11 PM EDT 1:20 AM EDT
Length of Visible Light 14h 17m
Length of Day
13h 27m
Waxing Gibbous, 65% of the Moon is Illuminated
Jul 27
Waxing Gibbous
Aug 1
Full
Aug 9
Last Quarter
Aug 17
New
Aug 24
First Quarter

Hourly Weather History & Observations

Time (EDT) Temp. Heat Index Dew Point Humidity Pressure Visibility Wind Dir Wind Speed Gust Speed Precip Events Conditions
12:53 AM 82.9 °F 88.8 °F 73.0 °F 72% 30.03 in 10.0 mi Calm Calm - N/A   Clear
1:53 AM 82.0 °F 87.9 °F 73.9 °F 76% 30.01 in 10.0 mi Calm Calm - N/A   Clear
2:53 AM 81.0 °F 86.7 °F 75.0 °F 82% 30.01 in 10.0 mi SSE 3.5 mph - N/A   Clear
3:53 AM 80.1 °F 85.1 °F 75.0 °F 85% 30.01 in 10.0 mi Calm Calm - N/A   Clear
4:53 AM 80.1 °F 85.1 °F 75.0 °F 85% 30.02 in 10.0 mi Calm Calm - N/A   Clear
5:53 AM 79.0 °F - 75.0 °F 88% 30.04 in 10.0 mi Calm Calm - N/A   Clear
6:53 AM 79.0 °F - 75.0 °F 88% 30.06 in 10.0 mi Calm Calm - N/A   Clear
7:53 AM 81.0 °F 87.3 °F 75.9 °F 85% 30.08 in 10.0 mi Calm Calm - N/A   Clear
8:53 AM 84.0 °F 91.9 °F 75.0 °F 74% 30.09 in 10.0 mi Calm Calm - N/A   Mostly Cloudy
9:53 AM 86.0 °F 93.0 °F 73.0 °F 65% 30.10 in 10.0 mi SW 3.5 mph - N/A   Clear
10:33 AM 87.8 °F 95.6 °F 73.4 °F 62% 30.09 in 10.0 mi Variable 3.5 mph - N/A   Mostly Cloudy
10:53 AM 87.1 °F 94.5 °F 73.0 °F 63% 30.09 in 10.0 mi WNW 5.8 mph - N/A   Overcast
11:17 AM 84.2 °F 92.3 °F 75.2 °F 74% 30.09 in 1.8 mi West 3.5 mph - 0.03 in Rain Heavy Rain
11:29 AM 84.2 °F 92.3 °F 75.2 °F 74% 30.10 in 4.0 mi WSW 10.4 mph - 0.11 in Rain Light Rain
11:53 AM 87.1 °F 94.5 °F 73.0 °F 63% 30.10 in 10.0 mi West 8.1 mph - 0.11 in   Mostly Cloudy
12:53 PM 89.1 °F 99.1 °F 75.0 °F 63% 30.08 in 10.0 mi WNW 5.8 mph - N/A   Partly Cloudy
1:53 PM 88.0 °F 96.5 °F 73.9 °F 63% 30.08 in 10.0 mi NW 10.4 mph - N/A   Mostly Cloudy
2:53 PM 91.0 °F 98.2 °F 72.0 °F 53% 30.06 in 10.0 mi NNW 6.9 mph - N/A   Clear
3:53 PM 89.1 °F 99.1 °F 75.0 °F 63% 30.04 in 10.0 mi East 8.1 mph - N/A   Mostly Cloudy
4:53 PM 84.9 °F 94.1 °F 75.9 °F 74% 30.03 in 7.0 mi NNE 9.2 mph - 0.02 in Rain Light Rain
5:53 PM 90.0 °F 99.0 °F 73.9 °F 59% 30.02 in 10.0 mi ESE 3.5 mph - 0.00 in   Scattered Clouds
6:53 PM 90.0 °F 96.9 °F 72.0 °F 55% 30.03 in 10.0 mi WSW 4.6 mph - N/A   Mostly Cloudy
7:53 PM 84.0 °F 90.2 °F 73.0 °F 69% 30.04 in 10.0 mi ESE 11.5 mph - N/A   Overcast
8:53 PM 82.9 °F 88.8 °F 73.0 °F 72% 30.06 in 10.0 mi Calm Calm - N/A   Clear
9:53 PM 82.9 °F 88.8 °F 73.0 °F 72% 30.07 in 10.0 mi SE 6.9 mph - N/A   Clear
10:53 PM 81.0 °F 86.2 °F 73.9 °F 79% 30.09 in 10.0 mi SE 3.5 mph - N/A   Partly Cloudy
11:53 PM 80.1 °F 84.5 °F 73.9 °F 81% 30.09 in 10.0 mi Calm Calm - N/A   Clear